User: anonymous   Login
Location: Unspecified
(0.0000°N, 0.0000°E)
Time: 05:15:55
(UTC+00:00)
Language:

USA 82 - Orbit

View from above orbital plane
View from above orbital plane
View from above satellite
View from above satellite

Ground track
Ground track

The orbit data is extracted from the following two-line orbital elements,

1 22009U 92037A   18140.45085213 0.00000000  00000-0  00000-0 0    09
2 22009  12.1675  31.0282 0011107 311.7119  48.1732  0.98813915    05
Epoch (UTC): 20 May 2018 10:49:13
Eccentricity: 0.0011107
inclination: 12.1675°
perigee height: 36152 km
apogee height: 36247 km
right ascension of ascending node: 31.0282°
argument of perigee: 311.7119°
revolutions per day: 0.98813915
mean anomaly at epoch: 48.1732°
orbit number at epoch: 0

The dashed part of the orbit path shows where the satellite is in the earth's shadow,  

DLR